Regional Weather Roundup
Issued by NWS

Home | Current Version | Previous Version | Text Only | Print | Product List | Glossary On
Versions: 1 2 3 4 5 6 7 8 9 10 11 12 13 14 15 16 17 18 19 20 21 22 23 24 25 26 27 28 29 30 31 32 33 34 35 36 37 38 39 40 41 42 43 44 45 46 47 48 49 50
000
ASUS43 KOAX 230702
RWRNE

WEATHER ROUNDUP FOR NEBRASKA
NATIONAL WEATHER SERVICE OMAHA NE
200 AM CDT TUE SEP 23 2014

NOTES: SATELLITE DATA IS BEING USED TO AUGMENT CLOUD COVER ABOVE
       12000 FEET.
       "FAIR" INDICATES FEW OR NO CLOUDS BELOW 12,000 FEET WITH NO
       SIGNIFICANT WEATHER AND/OR OBSTRUCTIONS TO VISIBILITY.

  * THESE STATIONS DO NOT REPORT WEATHER SUCH AS RAIN...SNOW OR FOG.

NEZ001>004-019>022-054>056-230800-
NEBRASKA PANHANDLE

CITY           SKY/WX    TMP DP  RH WIND       PRES   REMARKS
SCOTTSBLUFF    PTCLDY    54  53  97 E6        30.02S
ALLIANCE       CLEAR     53  51  93 S7        30.00F
CHADRON        CLEAR     58  54  86 CALM      29.94F
KIMBALL        MOCLDY    56  51  82 SW6       30.08R
SIDNEY         CLOUDY    60  56  86 SW9       30.06F
$$

NEZ057>060-069>072-079>082-230800-
SOUTHWEST NEBRASKA

CITY           SKY/WX    TMP DP  RH WIND       PRES   REMARKS
NORTH PLATTE   CLOUDY    56  52  86 SE6       30.05F
IMPERIAL       CLOUDY    60  54  80 SW8       30.05R
LEXINGTON      LGT RAIN  57  56  94 S18G24    30.07F
MCCOOK         LGT RAIN  60  57  89 S22G32    30.03F
OGALLALA       CLOUDY    61  56  85 CALM      30.03F
$$

NEZ005>010-023>029-035>040-094-230800-
NORTH CENTRAL NEBRASKA

CITY           SKY/WX    TMP DP  RH WIND       PRES   REMARKS
VALENTINE      MOCLDY    59  53  80 S12       30.02F
AINSWORTH      CLOUDY    57  52  84 SE17G24   30.04S
BROKEN BOW     CLOUDY    58  53  84 SE14G23   30.08F
O`NEILL        RAIN      58  56  94 S14       30.10F
ORD            CLOUDY    57  54  89 SE8       30.10F
$$

NEZ041-046>049-061>064-073>077-083>087-230800-
SOUTH CENTRAL NEBRASKA

CITY           SKY/WX    TMP DP  RH WIND       PRES   REMARKS
GRAND ISLAND   CLOUDY    58  53  84 SE13      30.14S
AURORA         LGT RAIN  58  53  81 S7        30.16R
HASTINGS       LGT RAIN  59  51  75 CALM      30.17R
HEBRON         CLOUDY    60  50  68 SE5       30.15F
HOLDREGE       RAIN      57  53  87 S20G25    30.11F
KEARNEY *      CLOUDY    55  52  88 SE20      30.12F
$$

NEZ011>018-030>034-042>045-230800-
NORTHEAST NEBRASKA

CITY           SKY/WX    TMP DP  RH WIND       PRES   REMARKS
NORFOLK        CLOUDY    60  53  77 S8        30.14R
ALBION         CLOUDY    58  52  80 S6        30.15R
BLAIR          CLOUDY    62  51  68 S7        30.18R
COLUMBUS *     CLOUDY    61  52  72 S6        30.16S
FREMONT        CLOUDY    63  51  64 SE7       30.17S
TEKAMAH        CLOUDY    57  53  86 S5        30.17S
WAYNE          LGT RAIN  60  54  80 SE6       30.14S
$$

NEZ050>053-065>068-078-088>093-230800-
SOUTHEAST NEBRASKA

CITY           SKY/WX    TMP DP  RH WIND       PRES   REMARKS
LINCOLN        CLOUDY    60  51  72 S8        30.17F
OMAHA EPPLEY   CLOUDY    63  50  62 S10       30.19R
BEATRICE       MOCLDY    60  51  71 S7        30.17S
FALLS CITY     CLOUDY    55  52  89 SE3       30.20S
NEBRASKA CITY    N/A     58  49  70 S8        30.19S
PLATTSMOUTH    CLOUDY    59  51  76 SE5       30.19R
$$

NEZ044-045-051>053-067-230800-
OMAHA AREA

CITY           SKY/WX    TMP DP  RH WIND       PRES   REMARKS
OMAHA EPPLEY   CLOUDY    63  50  62 S10       30.19R
BLAIR          CLOUDY    62  51  68 S7        30.18R
FREMONT        CLOUDY    63  51  64 SE7       30.17S
MILLARD        CLOUDY    62  53  72 CALM      30.18S
OFFUTT AFB     CLOUDY    60  57  91 SE5       30.18S
PLATTSMOUTH    CLOUDY    59  51  76 SE5       30.19R
WAHOO          FAIR      60  52  74 SE7       30.17S
$$


USA.gov is the U.S. government's official web portal to all federal, state and local government web resources and services.